EW0920 Weather Reports


time (UTC)temp
C
wind
direction
speed
KPH
gust
KPH
rain 1hr
cm
rain 24hr
cm
rain mn
cm
humidity
%
barometer
mb
20260507005900 12 354 0.0 0.0 0.00 1.47 1.47 72 1015.4
20260507005356 12 354 0.0 0.0 0.00 1.47 1.47 71 1015.4
20260507004853 12 357 0.0 0.0 0.00 1.47 1.47 72 1015.2
20260507004350 12 357 0.0 0.0 0.00 1.47 1.47 72 1015.0
20260507003850 13 344 0.0 0.0 0.00 1.47 1.47 71 1015.1
20260507003344 13 356 0.0 1.6 0.00 1.47 1.47 69 1015.0
20260507002839 13 351 0.0 0.0 0.00 1.47 1.47 71 1014.8
20260507002335 13 347 0.0 0.0 0.00 1.47 1.47 67 1014.9
20260507001833 13 358 0.0 0.0 0.00 1.47 1.47 69 1014.4
20260507001329 13 346 0.0 1.6 0.00 1.47 1.47 74 1014.5
20260507000826 13 352 0.0 1.6 0.00 1.47 1.47 73 1014.4
20260507000321 13 11 0.0 3.2 0.00 1.47 1.47 69 1014.5
20260506235818 13 351 0.0 0.0 0.00 1.47 1.47 73 1014.3
20260506235314 13 98 0.0 0.0 0.00 1.47 1.47 71 1014.1
20260506234810 13 5 0.0 3.2 0.00 1.47 1.47 76 1014.4
20260506234308 13 347 0.0 0.0 0.00 1.47 1.47 76 1014.2
20260506233806 13 358 0.0 0.0 0.00 1.47 1.47 75 1014.2
20260506233256 13 358 0.0 0.0 0.00 1.47 1.47 76 1014.1
20260506232753 13 358 0.0 0.0 0.00 1.47 1.47 75 1014.0
20260506232248 14 358 0.0 0.0 0.00 1.47 1.47 75 1014.3
20260506231745 14 358 0.0 0.0 0.00 1.47 1.47 71 1014.1
20260506231244 14 354 0.0 0.0 0.00 1.47 1.47 72 1014.3
20260506230740 14 352 0.0 0.0 0.00 1.47 1.47 73 1014.6
20260506230237 14 352 0.0 0.0 0.00 1.47 1.47 72 1014.7
20260506225733 15 350 0.0 0.0 0.00 1.47 1.47 66 1014.5
20260506225231 15 354 0.0 0.0 0.00 1.47 1.47 69 1014.6
20260506224726 15 349 0.0 0.0 0.00 1.47 1.47 65 1014.5
20260506224224 15 325 0.0 1.6 0.00 1.47 1.47 62 1014.4
20260506223720 15 357 0.0 0.0 0.00 1.47 1.47 64 1014.5
20260506223215 15 340 0.0 3.2 0.00 1.47 1.47 60 1014.5
20260506222713 15 346 0.0 0.0 0.00 1.47 1.47 65 1014.4
20260506222208 15 355 0.0 1.6 0.00 1.47 1.47 64 1014.3
20260506221707 16 347 0.0 0.0 0.00 1.47 1.47 61 1014.3
20260506221204 16 346 0.0 0.0 0.00 1.47 1.47 59 1014.2
20260506220701 16 343 0.0 0.0 0.00 1.47 1.47 64 1014.0
20260506220156 16 357 0.0 0.0 0.00 1.47 1.47 61 1014.1
20260506215653 16 345 0.0 0.0 0.00 1.47 1.47 58 1014.0
20260506215148 16 323 0.0 0.0 0.00 1.47 1.47 59 1014.1
20260506214645 16 355 0.0 1.6 0.00 1.47 1.47 59 1013.9
20260506214143 16 346 0.0 1.6 0.00 1.47 1.47 55 1013.8
20260506213641 17 329 0.0 0.0 0.00 1.47 1.47 54 1013.7
20260506213138 16 353 0.0 3.2 0.00 1.47 1.47 53 1013.5
20260506212635 17 321 0.0 1.6 0.00 1.47 1.47 52 1013.4
20260506212130 17 11 0.0 3.2 0.00 1.47 1.47 50 1013.5
20260506211626 17 3 1.6 4.8 0.00 1.47 1.47 50 1013.9
20260506211123 17 343 0.0 3.2 0.00 1.47 1.47 59 1013.7
20260506210620 17 55 0.0 1.6 0.00 1.47 1.47 54 1013.8
20260506210116 17 340 0.0 0.0 0.00 1.47 1.47 60 1013.7
20260506205613 17 337 0.0 1.6 0.00 1.47 1.47 58 1013.5
20260506205108 17 339 0.0 4.8 0.00 1.47 1.47 58 1013.7
20260506204606 16 335 0.0 0.0 0.00 1.47 1.47 54 1013.7
20260506204103 17 304 1.6 3.2 0.00 1.47 1.47 60 1013.7
20260506203601 17 353 0.0 0.0 0.00 1.47 1.47 59 1013.5
20260506203057 16 356 0.0 1.6 0.00 1.47 1.47 59 1013.5
20260506202555 17 4 3.2 4.8 0.00 1.47 1.47 56 1013.4
20260506202051 17 322 0.0 3.2 0.00 1.47 1.47 56 1013.6
20260506201549 17 346 3.2 4.8 0.00 1.47 1.47 57 1013.4
20260506201045 17 309 1.6 3.2 0.00 1.47 1.47 56 1013.4
20260506200541 17 269 1.6 3.2 0.00 1.47 1.47 56 1013.3
20260506200038 17 318 0.0 1.6 0.00 1.47 1.47 56 1013.3
20260506195535 18 8 3.2 4.8 0.00 1.47 1.47 58 1013.0
20260506195031 17 349 0.0 1.6 0.00 1.47 1.47 58 1012.9
20260506194529 17 242 1.6 12.9 0.00 1.47 1.47 61 1013.2
20260506194026 17 301 1.6 4.8 0.00 1.47 1.47 61 1013.3
20260506193523 17 246 1.6 9.7 0.00 1.47 1.47 61 1013.2
20260506193020 17 330 0.0 1.6 0.00 1.47 1.47 63 1013.3
20260506192517 17 299 1.6 3.2 0.00 1.47 1.47 58 1013.2
20260506192013 18 260 1.6 1.6 0.00 1.47 1.47 55 1013.4
20260506191510 18 314 0.0 3.2 0.00 1.47 1.47 59 1013.3
20260506191006 17 276 0.0 3.2 0.00 1.47 1.47 60 1013.5
20260506190503 17 348 0.0 6.4 0.00 1.47 1.47 61 1013.4
20260506185959 18 313 1.6 4.8 0.00 1.47 1.47 60 1013.6
20260506185457 17 329 1.6 1.6 0.00 1.47 1.47 61 1013.4
20260506184953 17 3 1.6 3.2 0.00 1.47 1.47 65 1013.5
20260506184451 17 289 1.6 3.2 0.00 1.47 1.47 60 1013.5
20260506183948 17 0 0.0 1.6 0.00 1.47 1.47 60 1013.5
20260506183443 16 9 0.0 1.6 0.00 1.47 1.47 70 1013.4
20260506182941 17 157 3.2 4.8 0.00 1.47 1.47 66 1013.4
20260506182438 16 146 1.6 3.2 0.00 1.47 1.47 65 1013.6
20260506181935 16 353 0.0 0.0 0.00 1.47 1.47 68 1013.4
20260506181433 16 330 0.0 1.6 0.00 1.47 1.47 67 1013.7
20260506180929 16 335 0.0 4.8 0.00 1.47 1.47 70 1013.8
20260506180425 16 314 0.0 3.2 0.00 1.47 1.47 72 1013.7
20260506175918 16 91 1.6 1.6 0.00 1.47 1.47 72 1013.6
20260506175414 16 265 0.0 1.6 0.00 1.47 1.47 75 1013.7
20260506174911 16 149 1.6 1.6 0.00 1.47 1.47 73 1013.6
20260506174409 15 322 0.0 3.2 0.00 1.47 1.47 73 1013.8
20260506173906 15 268 1.6 1.6 0.00 1.47 1.47 74 1013.9
20260506173402 15 351 1.6 4.8 0.00 1.47 1.47 71 1013.8
20260506172859 15 318 0.0 3.2 0.00 1.47 1.47 71 1014.1
20260506172355 16 353 0.0 4.8 0.00 1.47 1.47 76 1014.1
20260506171853 15 31 0.0 3.2 0.00 1.47 1.47 75 1013.9
20260506171350 15 337 1.6 4.8 0.00 1.47 1.47 73 1013.8
20260506170847 15 277 1.6 4.8 0.00 1.47 1.47 75 1013.9
20260506170344 15 216 1.6 3.2 0.00 1.47 1.47 74 1013.9
20260506165843 15 257 1.6 3.2 0.00 1.47 1.47 75 1014.0
20260506165340 15 343 0.0 3.2 0.00 1.47 1.47 80 1014.0
20260506164831 15 309 0.0 3.2 0.00 1.47 1.47 78 1013.8
20260506164327 15 204 3.2 4.8 0.00 1.47 1.47 77 1013.5
20260506163826 15 257 1.6 1.6 0.00 1.47 1.47 77 1013.6
20260506163325 15 249 3.2 4.8 0.00 1.47 1.47 77 1014.0
20260506162821 15 306 0.0 3.2 0.00 1.47 1.47 74 1013.7
20260506162319 15 335 0.0 1.6 0.00 1.47 1.47 83 1013.9
20260506161816 14 174 4.8 4.8 0.00 1.47 1.47 80 1014.1
20260506161314 13 336 3.2 6.4 0.00 1.47 1.47 85 1013.9
20260506160806 13 338 0.0 9.7 0.00 1.47 1.47 86 1014.1
20260506160302 13 339 0.0 0.0 0.00 1.47 1.47 86 1014.1
20260506155801 13 56 0.0 1.6 0.00 1.47 1.47 83 1014.0
20260506155257 12 305 0.0 1.6 0.00 1.47 1.47 89 1013.9
20260506153404 12 9 0.0 4.8 0.00 1.47 1.47 89 1013.8
20260506152901 12 22 0.0 1.6 0.00 1.47 1.47 91 1013.5
20260506152358 11 329 0.0 3.2 0.00 1.47 1.47 90 1013.5
20260506151856 11 321 0.0 0.0 0.00 1.47 1.47 93 1013.4
20260506151353 11 270 1.6 3.2 0.00 1.47 1.47 91 1013.3
20260506150850 11 239 1.6 1.6 0.00 1.47 1.47 95 1013.3
20260506150346 11 328 0.0 1.6 0.00 1.47 1.47 96 1013.4
20260506145843 10 342 0.0 1.6 0.00 1.47 1.47 96 1013.5
20260506145339 10 332 0.0 1.6 0.00 1.47 1.47 98 1013.4
20260506144837 10 343 0.0 1.6 0.00 1.47 1.47 98 1013.2
20260506144334 10 256 3.2 4.8 0.00 1.47 1.47 98 1013.2
20260506143832 10 329 0.0 1.6 0.00 1.47 1.47 98 1013.0
20260506143329 10 316 0.0 0.0 0.00 1.47 1.47 97 1013.1
20260506142827 10 280 1.6 4.8 0.00 1.47 1.47 97 1012.7
20260506142325 10 197 1.6 1.6 0.00 1.47 1.47 99 1012.7
20260506141823 10 346 0.0 3.2 0.00 1.47 1.47 99 1012.7
20260506141321 10 334 0.0 3.2 0.00 1.47 1.47 99 1012.4
20260506140819 10 232 0.0 1.6 0.00 1.47 1.47 99 1012.6
20260506140315 10 339 0.0 1.6 0.00 1.47 1.47 99 1012.6
20260506135812 10 253 1.6 1.6 0.00 1.47 1.47 99 1012.4
20260506135308 10 329 0.0 1.6 0.00 1.47 1.47 99 1012.6
20260506134805 10 338 0.0 0.0 0.00 1.47 1.47 99 1012.6
20260506134301 10 333 0.0 0.0 0.00 1.47 1.47 99 1012.2
20260506133758 10 324 0.0 1.6 0.00 1.47 1.47 99 1011.8
20260506133255 10 342 0.0 0.0 0.00 1.47 1.47 99 1011.9
20260506132752 10 328 0.0 1.6 0.00 1.47 1.47 99 1012.0
20260506132249 10 283 1.6 1.6 0.00 1.47 1.47 99 1011.6
20260506131748 10 310 0.0 3.2 0.00 1.47 1.47 99 1011.9
20260506131243 10 0 1.6 3.2 0.18 1.47 1.47 99 1011.7
20260506130740 10 350 0.0 1.6 0.18 1.47 1.47 99 1011.7
20260506130237 10 354 0.0 3.2 0.13 1.45 1.45 99 1011.8
20260506125735 10 319 0.0 3.2 0.13 1.45 1.45 99 1011.6
20260506125233 10 352 1.6 1.6 0.18 1.42 1.42 99 1011.6
20260506124731 10 334 0.0 1.6 0.18 1.42 1.42 99 1011.5
20260506124228 10 262 3.2 4.8 0.00 1.40 1.40 99 1011.3
20260506123725 11 301 0.0 1.6 0.00 1.40 1.40 99 1011.1
20260506123224 11 19 1.6 1.6 0.00 1.40 1.40 99 1010.9
20260506122720 11 358 0.0 0.0 0.00 1.40 1.40 99 1010.4
20260506122218 12 314 0.0 0.0 0.00 1.40 1.40 99 1010.3
20260506121716 12 343 0.0 1.6 0.00 1.40 1.40 99 1010.0
20260506121212 12 339 0.0 0.0 0.00 1.40 1.40 99 1010.0
20260506120710 12 345 0.0 1.6 0.00 1.40 1.40 99 1009.9
20260506120207 12 321 0.0 0.0 0.00 1.40 1.40 99 1009.9
20260506115705 12 1 0.0 0.0 0.00 1.40 1.40 99 1009.8
20260506115203 12 351 0.0 0.0 0.00 1.40 1.40 99 1009.5
20260506114700 12 345 0.0 1.6 0.00 1.40 1.40 99 1009.7
20260506114158 12 350 0.0 0.0 0.00 1.40 1.40 99 1009.6
20260506113656 12 342 0.0 0.0 0.00 1.40 1.40 99 1009.3
20260506113153 12 356 0.0 0.0 0.00 1.40 1.40 99 1009.3
20260506112649 13 324 0.0 1.6 0.00 1.40 1.40 99 1009.3
20260506112147 13 358 0.0 0.0 0.13 1.40 1.40 99 1009.1
20260506111644 13 14 3.2 4.8 0.13 1.40 1.40 99 1009.3
20260506111142 14 325 1.6 3.2 0.00 1.37 1.37 99 1009.1
20260506110639 13 7 0.0 0.0 0.00 1.37 1.37 99 1009.0
20260506110137 13 9 0.0 0.0 0.00 1.37 1.37 99 1008.9
20260506105633 13 11 0.0 0.0 0.00 1.37 1.37 99 1008.7
20260506105130 13 13 0.0 0.0 0.18 1.37 1.37 99 1008.8
20260506104628 13 20 0.0 0.0 0.18 1.37 1.37 99 1008.6
20260506104125 13 12 0.0 0.0 0.00 1.35 1.35 99 1008.6
20260506103623 13 359 0.0 0.0 0.00 1.35 1.35 99 1008.7
20260506103119 13 10 0.0 0.0 0.00 1.35 1.35 99 1008.3
20260506102618 13 349 0.0 0.0 0.00 1.35 1.35 99 1007.8
20260506102115 13 7 1.6 1.6 0.00 1.35 1.35 99 1008.1
20260506101611 13 350 0.0 1.6 0.00 1.35 1.35 99 1008.1
20260506101108 13 3 0.0 1.6 0.00 1.35 1.35 99 1008.2
20260506100607 13 28 1.6 1.6 0.00 1.35 1.35 99 1008.4
20260506100104 13 20 0.0 1.6 0.00 1.35 1.35 99 1008.5
20260506095603 13 18 0.0 0.0 0.00 1.35 1.35 99 1008.2
20260506095059 13 18 0.0 0.0 0.00 1.35 1.35 99 1008.1
20260506094557 13 16 0.0 0.0 0.00 1.35 1.35 99 1008.2
20260506094054 13 13 0.0 0.0 0.00 1.35 1.35 99 1008.3
20260506093552 13 6 0.0 0.0 0.00 1.35 1.35 99 1008.3
20260506093049 13 2 0.0 1.6 0.00 1.35 1.35 99 1008.4
20260506092548 13 17 0.0 0.0 0.00 1.35 1.35 99 1008.2
20260506092044 13 16 0.0 0.0 0.00 1.35 1.35 99 1008.2
20260506091542 13 7 0.0 0.0 0.00 1.35 1.35 99 1008.4
20260506091039 13 202 0.0 3.2 0.13 1.35 1.35 99 1008.4
20260506090537 13 24 0.0 0.0 0.30 1.35 1.35 99 1008.2
20260506090033 13 29 0.0 1.6 0.36 1.32 1.32 99 1008.4
20260506085530 13 11 0.0 0.0 0.30 1.30 1.30 99 1008.6
20260506085026 13 38 0.0 1.6 0.61 1.27 1.27 99 1008.5
20260506084524 13 3 0.0 0.0 0.71 1.22 1.22 99 1008.5
20260506084020 13 28 0.0 0.0 0.48 1.14 1.14 99 1008.7
20260506083517 13 26 0.0 0.0 0.18 1.09 1.09 99 1008.3
20260506083014 13 25 0.0 1.6 0.13 1.07 1.07 99 1008.5
20260506082511 13 17 0.0 0.0 0.30 1.04 1.04 99 1008.3
20260506082007 13 7 0.0 1.6 0.79 1.04 1.04 99 1008.4
20260506081505 14 7 0.0 3.2 0.79 0.99 0.99 99 1008.4
20260506081003 14 13 0.0 0.0 0.61 0.91 0.91 99 1008.4
20260506080459 14 14 0.0 0.0 0.79 0.86 0.86 99 1008.7
20260506073443 14 16 0.0 0.0 0.61 0.64 0.64 99 1008.6
20260506072940 14 19 0.0 1.6 0.48 0.58 0.58 99 1008.6
20260506072437 14 36 1.6 1.6 0.30 0.53 0.53 99 1008.6
20260506071935 14 17 0.0 0.0 0.30 0.51 0.51 99 1008.6
20260506071433 14 16 0.0 0.0 0.30 0.48 0.48 99 1008.9
20260506070930 14 18 0.0 0.0 0.30 0.46 0.46 99 1008.6
20260506070426 14 20 0.0 0.0 0.30 0.43 0.43 99 1008.7
20260506062405 15 356 0.0 0.0 0.13 0.13 0.13 99 1008.7
20260506061900 15 356 0.0 0.0 0.13 0.13 0.13 99 1009.0
20260506061356 15 5 0.0 0.0 0.00 0.10 0.10 99 1008.5
20260506060855 15 5 0.0 0.0 0.00 0.10 0.10 99 1008.4
20260506060352 15 5 0.0 0.0 0.00 0.10 0.10 99 1008.5
20260506051325 15 332 0.0 1.6 0.13 0.08 0.08 99 1009.3
20260506050822 15 352 0.0 0.0 0.13 0.08 0.08 99 1009.2
20260506050320 15 352 0.0 0.0 0.18 0.05 0.05 99 1009.3
20260506044809 15 34 0.0 1.6 0.00 0.03 0.03 99 1009.5
20260506044307 15 343 0.0 0.0 0.00 0.03 0.03 99 1009.6
20260506043804 15 359 0.0 0.0 0.00 0.03 0.03 99 1009.8
20260506043301 15 359 0.0 0.0 0.00 0.03 0.03 99 1009.8
20260506042801 15 359 0.0 0.0 0.00 0.03 0.03 99 1009.8
20260506042259 15 350 0.0 0.0 0.00 0.03 0.03 99 1009.9
20260506041757 15 350 0.0 0.0 0.18 0.03 0.03 99 1010.5
20260506041253 15 348 0.0 0.0 0.00 0.00 0.00 99 1010.4
20260506040751 15 346 0.0 0.0 0.00 0.00 0.00 99 1010.3
20260506040248 15 345 0.0 0.0 0.13 0.00 0.00 99 1010.7
20260506035745 15 355 0.0 1.6 0.13 0.10 0.10 99 1010.3
20260506035241 15 355 0.0 0.0 0.18 0.08 0.08 99 1010.3
20260506034738 15 355 0.0 0.0 0.18 0.08 0.08 99 1010.5
20260506034236 15 355 0.0 0.0 0.00 0.05 0.05 99 1010.2
20260506033733 15 355 0.0 0.0 0.00 0.05 0.05 99 1010.1
20260506033230 15 355 0.0 0.0 0.00 0.05 0.05 99 1010.0
20260506032727 15 355 0.0 0.0 0.00 0.05 0.05 99 1010.0
20260506032224 15 355 0.0 0.0 0.00 0.05 0.05 99 1010.0
20260506031720 15 355 0.0 0.0 0.00 0.05 0.05 99 1009.9
20260506031218 15 355 0.0 0.0 0.00 0.05 0.05 99 1010.1
20260506030716 15 355 0.0 0.0 0.00 0.05 0.05 99 1010.1
20260506030213 15 355 0.0 0.0 0.00 0.05 0.05 99 1009.8
20260506025710 15 355 0.0 0.0 0.00 0.05 0.05 99 1010.0
20260506025206 15 355 0.0 0.0 0.00 0.05 0.05 99 1009.9
20260506024703 15 355 0.0 0.0 0.00 0.05 0.05 98 1009.8
20260506024159 15 17 0.0 0.0 0.00 0.05 0.05 98 1010.1
20260506023656 15 358 0.0 0.0 0.00 0.05 0.05 98 1010.1
20260506023154 15 3 0.0 0.0 0.00 0.05 0.05 97 1010.1
20260506022650 15 359 0.0 0.0 0.13 0.05 0.05 97 1010.0
20260506022148 15 3 0.0 0.0 0.13 0.05 0.05 97 1010.0
20260506021646 15 353 0.0 0.0 0.00 0.03 0.03 96 1010.1
20260506021142 15 0 0.0 0.0 0.00 0.03 0.03 95 1009.9
20260506020639 15 1 0.0 0.0 0.00 0.03 0.03 94 1009.8
20260506020137 16 0 0.0 0.0 0.00 0.03 0.03 93 1009.8
20260506015634 16 0 0.0 0.0 0.18 0.03 0.03 92 1009.9
20260506015131 16 0 0.0 0.0 0.00 0.00 0.00 90 1010.0
20260506014629 16 2 0.0 0.0 0.00 0.00 0.00 87 1010.1
20260506014124 16 3 0.0 0.0 0.00 0.00 0.00 86 1010.0
20260506013622 17 358 0.0 0.0 0.00 0.00 0.00 82 1010.1
20260506013119 17 358 0.0 0.0 0.00 0.00 0.00 81 1010.4
20260506012615 17 358 0.0 0.0 0.00 0.00 0.00 79 1010.0
20260506012112 18 358 0.0 0.0 0.00 0.00 0.00 76 1010.1
20260506011609 18 358 0.0 0.0 0.00 0.00 0.00 74 1009.9
20260506011105 18 358 0.0 0.0 0.00 0.00 0.00 72 1010.1
20260506010559 18 355 0.0 0.0 0.00 0.00 0.00 69 1010.0
20260506010055 19 352 0.0 0.0 0.00 0.00 0.00 68 1009.9